星链-2054 (STARLINK-2054 )

导读 | 豆包AI

STARLINK-2054是美国太空探索技术公司(SpaceX)星链(Starlink)星座中的卫星,于2021年2月16日发射。它属于低轨卫星,运行在轨道倾角约53度、高度约475公里近地轨道,是星链全球卫星互联网项目的组成部分,旨在为全球偏远地区等提供高速互联网接入服务,截至2026年该卫星仍在轨正常工作。

基本信息
目录编号:
47664
目录名称:
STARLINK-2054
国际标识:
2021-012AW
轨道中心:
EARTH
卫星名称:
星链-2054
卫星全名:
星链-2054 (STARLINK-2054 )
卫星状态:
已陨落 最后检测时间 2025-02-01
发射日期:
2021-02-16 UTC
国别 :
美国 (US)
星等 :
--
轨道信息
数据来源 国际轨道数据
星历时间: 2025-02-02T01:16:40+0800
轨道信息已过期477天
半长轴: 6541.548km
偏心率: 0.0002149
轨道倾角: 53.027°
近地点辐角 92.240°
升交点赤经 21.370°
平近点角 67.578°
近地点: 162.007km
远地点: 164.819km
周期: 87.757分钟
每日圈数: 16.408996
详细信息
固有亮度:
5
最大亮度:
2.5
卫星平台:
Starlink V1.0
覆盖范围:
全球
运营商:
太空探索技术公司
运营商所在国:
美国
制造商(研发单位):
太空探索技术公司
制造商所在国:
美国
使用方式:
暂无
卫星简介
星链(Starlink)计划是由太空探索技术公司(SpaceX)提出的一个巨型低轨卫星互联网星座项目,计划在2019年至2024年间在太空搭建由约1.2万颗卫星组成的“星链”网络,其中1584颗将部署在地球上空550千米处的近地轨道,并从2020年开始工作。该卫星仍在工作。